Time,TemperatureF,DewpointF,PressureIn,WindDirection,WindDirectionDegrees,WindSpeedMPH,WindSpeedGustMPH,Humidity,HourlyPrecipIn,Conditions,Clouds,dailyrainin,SoftwareType,DateUTC
2013-03-29 00:00:00,40.4,35.0,29.95,North,5,0.0,0.0,81,0.00,,,0.06,VWS V14.01,2013-03-29 04:00:00,
2013-03-29 00:05:00,40.4,35.0,29.95,North,5,0.0,0.0,81,0.00,,,0.00,VWS V14.01,2013-03-29 04:05:00,
2013-03-29 00:10:00,40.3,34.9,29.95,North,5,0.0,0.0,81,0.00,,,0.00,VWS V14.01,2013-03-29 04:10:00,
2013-03-29 00:15:00,40.2,35.2,29.95,North,5,0.0,0.0,82,0.00,,,0.00,VWS V14.01,2013-03-29 04:15:00,
2013-03-29 00:20:00,40.2,35.2,29.95,North,5,0.0,0.0,82,0.00,,,0.00,VWS V14.01,2013-03-29 04:20:00,
2013-03-29 00:25:00,40.3,35.6,29.95,North,5,0.0,0.0,83,0.00,,,0.00,VWS V14.01,2013-03-29 04:25:00,
2013-03-29 00:30:00,40.2,35.5,29.95,North,5,0.0,0.0,83,0.00,,,0.00,VWS V14.01,2013-03-29 04:30:00,
2013-03-29 00:35:00,40.1,35.4,29.95,North,5,0.0,0.0,83,0.00,,,0.00,VWS V14.01,2013-03-29 04:35:00,
2013-03-29 00:40:00,40.0,35.3,29.95,North,5,0.0,0.0,83,0.00,,,0.00,VWS V14.01,2013-03-29 04:40:00,
2013-03-29 00:45:00,40.0,35.0,29.95,North,5,0.0,0.0,82,0.00,,,0.00,VWS V14.01,2013-03-29 04:45:00,
2013-03-29 00:50:00,39.9,34.9,29.95,North,5,0.0,0.0,82,0.00,,,0.00,VWS V14.01,2013-03-29 04:50:00,
2013-03-29 00:55:00,39.9,34.9,29.95,North,5,0.0,1.0,82,0.00,,,0.00,VWS V14.01,2013-03-29 04:55:00,
2013-03-29 01:00:00,39.9,34.9,29.95,North,5,0.0,1.0,82,0.00,,,0.00,VWS V14.01,2013-03-29 05:00:00,
2013-03-29 01:05:00,39.9,34.9,29.95,North,5,0.0,1.0,82,0.00,,,0.00,VWS V14.01,2013-03-29 05:05:00,
2013-03-29 01:10:00,40.0,35.0,29.95,North,5,0.0,1.0,82,0.00,,,0.00,VWS V14.01,2013-03-29 05:10:00,
2013-03-29 01:15:00,40.0,35.0,29.95,North,5,0.0,1.0,82,0.00,,,0.00,VWS V14.01,2013-03-29 05:15:00,
2013-03-29 01:20:00,40.0,35.0,29.95,North,5,0.0,1.0,82,0.00,,,0.00,VWS V14.01,2013-03-29 05:20:00,
2013-03-29 01:25:00,40.0,34.7,29.95,North,5,0.0,2.0,81,0.00,,,0.00,VWS V14.01,2013-03-29 05:25:00,
2013-03-29 01:30:00,40.1,34.8,29.95,North,5,0.0,2.0,81,0.00,,,0.00,VWS V14.01,2013-03-29 05:30:00,
2013-03-29 01:35:00,40.1,34.8,29.95,North,5,0.0,0.0,81,0.00,,,0.00,VWS V14.01,2013-03-29 05:35:00,
2013-03-29 01:40:00,40.1,34.8,29.95,North,5,0.0,1.0,81,0.00,,,0.00,VWS V14.01,2013-03-29 05:40:00,
2013-03-29 01:45:00,40.2,34.8,29.95,North,5,0.0,1.0,81,0.00,,,0.00,VWS V14.01,2013-03-29 05:45:00,
2013-03-29 01:50:00,40.1,34.4,29.95,North,5,0.0,1.0,80,0.00,,,0.00,VWS V14.01,2013-03-29 05:50:00,
2013-03-29 01:55:00,40.2,34.5,29.95,North,5,0.0,1.0,80,0.00,,,0.00,VWS V14.01,2013-03-29 05:55:00,
2013-03-29 02:00:00,40.1,34.8,29.95,North,5,0.0,1.0,81,0.00,,,0.00,VWS V14.01,2013-03-29 06:00:00,
2013-03-29 02:05:00,40.0,34.7,29.95,North,5,0.0,0.0,81,0.00,,,0.00,VWS V14.01,2013-03-29 06:05:00,
2013-03-29 02:10:00,39.9,34.5,29.95,North,5,0.0,0.0,81,0.00,,,0.00,VWS V14.01,2013-03-29 06:10:00,
2013-03-29 02:15:00,39.7,34.0,29.95,North,5,0.0,0.0,80,0.00,,,0.00,VWS V14.01,2013-03-29 06:15:00,
2013-03-29 02:20:00,39.6,34.3,29.95,North,5,0.0,0.0,81,0.00,,,0.00,VWS V14.01,2013-03-29 06:20:00,
2013-03-29 02:25:00,39.3,34.0,29.95,North,5,0.0,0.0,81,0.00,,,0.00,VWS V14.01,2013-03-29 06:25:00,
2013-03-29 02:30:00,39.1,33.8,29.95,North,5,0.0,0.0,81,0.00,,,0.00,VWS V14.01,2013-03-29 06:30:00,
2013-03-29 02:35:00,38.9,33.9,29.95,North,5,0.0,0.0,82,0.00,,,0.00,VWS V14.01,2013-03-29 06:35:00,
2013-03-29 02:40:00,38.7,33.7,29.95,North,5,0.0,0.0,82,0.00,,,0.00,VWS V14.01,2013-03-29 06:40:00,
2013-03-29 02:45:00,38.4,33.4,29.95,North,5,0.0,0.0,82,0.00,,,0.00,VWS V14.01,2013-03-29 06:45:00,
2013-03-29 02:50:00,38.1,33.4,29.95,North,5,0.0,0.0,83,0.00,,,0.00,VWS V14.01,2013-03-29 06:50:00,
2013-03-29 02:55:00,37.8,33.4,29.95,North,5,0.0,0.0,84,0.00,,,0.00,VWS V14.01,2013-03-29 06:55:00,
2013-03-29 03:00:00,37.5,33.1,29.95,North,5,0.0,0.0,84,0.00,,,0.00,VWS V14.01,2013-03-29 07:00:00,
2013-03-29 03:05:00,37.3,32.9,29.95,North,5,0.0,0.0,84,0.00,,,0.00,VWS V14.01,2013-03-29 07:05:00,
2013-03-29 03:10:00,37.1,33.0,29.95,North,5,0.0,0.0,85,0.00,,,0.00,VWS V14.01,2013-03-29 07:10:00,
2013-03-29 03:15:00,36.9,33.1,29.95,North,5,0.0,0.0,86,0.00,,,0.00,VWS V14.01,2013-03-29 07:15:00,
2013-03-29 03:20:00,36.9,33.1,29.95,North,5,0.0,0.0,86,0.00,,,0.00,VWS V14.01,2013-03-29 07:20:00,
2013-03-29 03:25:00,36.9,33.1,29.95,North,5,0.0,0.0,86,0.00,,,0.00,VWS V14.01,2013-03-29 07:25:00,
2013-03-29 03:30:00,36.8,33.3,29.95,North,5,0.0,0.0,87,0.00,,,0.00,VWS V14.01,2013-03-29 07:30:00,
2013-03-29 03:35:00,36.6,33.1,29.95,North,5,0.0,0.0,87,0.00,,,0.00,VWS V14.01,2013-03-29 07:35:00,
2013-03-29 03:40:00,36.4,33.2,29.95,North,5,0.0,1.0,88,0.00,,,0.00,VWS V14.01,2013-03-29 07:40:00,
2013-03-29 03:45:00,36.2,33.0,29.94,North,5,1.0,2.0,88,0.00,,,0.00,VWS V14.01,2013-03-29 07:45:00,
2013-03-29 03:50:00,36.3,33.1,29.94,North,5,1.0,2.0,88,0.00,,,0.00,VWS V14.01,2013-03-29 07:50:00,
2013-03-29 03:55:00,36.3,32.8,29.94,North,5,0.0,2.0,87,0.00,,,0.00,VWS V14.01,2013-03-29 07:55:00,
2013-03-29 04:00:00,36.2,32.7,29.94,North,5,1.0,2.0,87,0.00,,,0.00,VWS V14.01,2013-03-29 08:00:00,
2013-03-29 04:05:00,36.3,32.8,29.94,North,5,1.0,2.0,87,0.00,,,0.00,VWS V14.01,2013-03-29 08:05:00,
2013-03-29 04:10:00,36.4,32.6,29.94,North,5,0.0,2.0,86,0.00,,,0.00,VWS V14.01,2013-03-29 08:10:00,
2013-03-29 04:15:00,36.5,32.7,29.94,North,5,0.0,2.0,86,0.00,,,0.00,VWS V14.01,2013-03-29 08:15:00,
2013-03-29 04:20:00,36.6,32.5,29.94,North,5,0.0,2.0,85,0.00,,,0.00,VWS V14.01,2013-03-29 08:20:00,
2013-03-29 04:25:00,36.5,32.4,29.95,North,5,0.0,2.0,85,0.00,,,0.00,VWS V14.01,2013-03-29 08:25:00,
2013-03-29 04:30:00,36.2,32.1,29.95,North,5,0.0,2.0,85,0.00,,,0.00,VWS V14.01,2013-03-29 08:30:00,
2013-03-29 04:35:00,36.0,32.2,29.95,North,5,0.0,1.0,86,0.00,,,0.00,VWS V14.01,2013-03-29 08:35:00,
2013-03-29 04:40:00,35.8,32.0,29.95,North,5,0.0,1.0,86,0.00,,,0.00,VWS V14.01,2013-03-29 08:40:00,
2013-03-29 04:45:00,35.7,31.9,29.95,North,5,0.0,1.0,86,0.00,,,0.00,VWS V14.01,2013-03-29 08:45:00,
2013-03-29 04:50:00,35.3,31.5,29.95,North,5,0.0,1.0,86,0.00,,,0.00,VWS V14.01,2013-03-29 08:50:00,
2013-03-29 04:55:00,35.0,31.5,29.95,North,5,0.0,1.0,87,0.00,,,0.00,VWS V14.01,2013-03-29 08:55:00,
2013-03-29 05:00:00,34.8,31.3,29.95,North,5,0.0,1.0,87,0.00,,,0.00,VWS V14.01,2013-03-29 09:00:00,
2013-03-29 05:05:00,34.6,31.1,29.95,North,5,0.0,0.0,87,0.00,,,0.00,VWS V14.01,2013-03-29 09:05:00,
2013-03-29 05:10:00,34.4,31.2,29.95,North,5,0.0,0.0,88,0.00,,,0.00,VWS V14.01,2013-03-29 09:10:00,
2013-03-29 05:15:00,34.2,31.0,29.96,North,5,0.0,0.0,88,0.00,,,0.00,VWS V14.01,2013-03-29 09:15:00,
2013-03-29 05:20:00,34.2,31.3,29.95,North,5,0.0,0.0,89,0.00,,,0.00,VWS V14.01,2013-03-29 09:20:00,
2013-03-29 05:25:00,34.1,31.2,29.96,North,5,0.0,0.0,89,0.00,,,0.00,VWS V14.01,2013-03-29 09:25:00,
2013-03-29 05:30:00,34.0,31.1,29.95,North,5,0.0,0.0,89,0.00,,,0.00,VWS V14.01,2013-03-29 09:30:00,
2013-03-29 05:35:00,33.8,30.9,29.95,North,5,0.0,0.0,89,0.00,,,0.00,VWS V14.01,2013-03-29 09:35:00,
2013-03-29 05:40:00,33.7,30.8,29.95,North,5,0.0,0.0,89,0.00,,,0.00,VWS V14.01,2013-03-29 09:40:00,
2013-03-29 05:45:00,33.5,30.6,29.95,North,5,0.0,0.0,89,0.00,,,0.00,VWS V14.01,2013-03-29 09:45:00,
2013-03-29 05:50:00,33.4,30.8,29.95,North,5,0.0,0.0,90,0.00,,,0.00,VWS V14.01,2013-03-29 09:50:00,
2013-03-29 05:55:00,33.3,30.7,29.95,North,5,0.0,0.0,90,0.00,,,0.00,VWS V14.01,2013-03-29 09:55:00,
2013-03-29 06:00:00,33.2,30.6,29.95,North,5,0.0,0.0,90,0.00,,,0.00,VWS V14.01,2013-03-29 10:00:00,
2013-03-29 06:05:00,33.1,30.5,29.95,North,5,0.0,0.0,90,0.00,,,0.00,VWS V14.01,2013-03-29 10:05:00,
2013-03-29 06:10:00,33.1,30.8,29.95,North,5,0.0,0.0,91,0.00,,,0.00,VWS V14.01,2013-03-29 10:10:00,
2013-03-29 06:15:00,33.1,30.8,29.95,North,5,0.0,0.0,91,0.00,,,0.00,VWS V14.01,2013-03-29 10:15:00,
2013-03-29 06:20:00,33.1,30.8,29.95,North,5,0.0,0.0,91,0.00,,,0.00,VWS V14.01,2013-03-29 10:20:00,
2013-03-29 06:25:00,33.1,30.8,29.95,North,5,0.0,0.0,91,0.00,,,0.00,VWS V14.01,2013-03-29 10:25:00,
2013-03-29 06:30:00,33.2,30.9,29.95,North,5,0.0,0.0,91,0.00,,,0.00,VWS V14.01,2013-03-29 10:30:00,
2013-03-29 06:35:00,33.2,30.9,29.96,North,5,0.0,0.0,91,0.00,,,0.00,VWS V14.01,2013-03-29 10:35:00,
2013-03-29 06:40:00,33.3,31.0,29.95,North,5,0.0,0.0,91,0.00,,,0.00,VWS V14.01,2013-03-29 10:40:00,
2013-03-29 06:45:00,33.4,31.1,29.96,North,5,0.0,0.0,91,0.00,,,0.00,VWS V14.01,2013-03-29 10:45:00,
2013-03-29 06:50:00,33.5,31.2,29.96,North,5,0.0,1.0,91,0.00,,,0.00,VWS V14.01,2013-03-29 10:50:00,
2013-03-29 06:55:00,33.6,31.3,29.96,North,5,0.0,1.0,91,0.00,,,0.00,VWS V14.01,2013-03-29 10:55:00,
2013-03-29 07:00:00,33.7,31.4,29.96,North,5,0.0,1.0,91,0.00,,,0.00,VWS V14.01,2013-03-29 11:00:00,
2013-03-29 07:05:00,33.9,31.3,29.96,North,5,0.0,0.0,90,0.00,,,0.00,VWS V14.01,2013-03-29 11:05:00,
2013-03-29 07:10:00,34.1,31.5,29.96,North,5,0.0,1.0,90,0.00,,,0.00,VWS V14.01,2013-03-29 11:10:00,
2013-03-29 07:15:00,34.4,31.8,29.96,North,5,0.0,1.0,90,0.00,,,0.00,VWS V14.01,2013-03-29 11:15:00,
2013-03-29 07:20:00,34.6,32.0,29.96,North,5,0.0,1.0,90,0.00,,,0.00,VWS V14.01,2013-03-29 11:20:00,
2013-03-29 07:25:00,35.0,32.4,29.96,North,5,1.0,1.0,90,0.00,,,0.00,VWS V14.01,2013-03-29 11:25:00,
2013-03-29 07:30:00,35.5,32.6,29.96,North,5,0.0,1.0,89,0.00,,,0.00,VWS V14.01,2013-03-29 11:30:00,
2013-03-29 07:35:00,36.1,33.2,29.96,North,5,1.0,2.0,89,0.00,,,0.00,VWS V14.01,2013-03-29 11:35:00,
2013-03-29 07:40:00,36.9,33.7,29.96,North,5,1.0,2.0,88,0.00,,,0.00,VWS V14.01,2013-03-29 11:40:00,
2013-03-29 07:45:00,37.8,34.0,29.96,North,5,0.0,2.0,86,0.00,,,0.00,VWS V14.01,2013-03-29 11:45:00,
2013-03-29 07:50:00,38.6,34.5,29.96,North,5,1.0,3.0,85,0.00,,,0.00,VWS V14.01,2013-03-29 11:50:00,
2013-03-29 07:55:00,39.4,35.0,29.96,North,5,0.0,3.0,84,0.00,,,0.00,VWS V14.01,2013-03-29 11:55:00,
2013-03-29 08:00:00,40.2,35.2,29.96,North,5,0.0,3.0,82,0.00,,,0.00,VWS V14.01,2013-03-29 12:00:00,
2013-03-29 08:05:00,41.0,35.6,29.96,North,5,1.0,2.0,81,0.00,,,0.00,VWS V14.01,2013-03-29 12:05:00,
2013-03-29 08:10:00,41.7,35.7,29.97,North,5,0.0,6.0,79,0.00,,,0.00,VWS V14.01,2013-03-29 12:10:00,
2013-03-29 08:15:00,42.4,35.7,29.97,NW,317,0.0,7.0,77,0.00,,,0.00,VWS V14.01,2013-03-29 12:15:00,
2013-03-29 08:20:00,43.1,36.1,29.97,NW,311,2.0,7.0,76,0.00,,,0.00,VWS V14.01,2013-03-29 12:20:00,
2013-03-29 08:25:00,43.6,35.9,29.97,WNW,302,4.0,7.0,74,0.00,,,0.00,VWS V14.01,2013-03-29 12:25:00,
2013-03-29 08:30:00,44.0,35.9,29.97,NW,321,3.0,7.0,73,0.00,,,0.00,VWS V14.01,2013-03-29 12:30:00,
2013-03-29 08:35:00,44.5,36.0,29.97,NW,318,2.0,6.0,72,0.00,,,0.00,VWS V14.01,2013-03-29 12:35:00,
2013-03-29 08:40:00,44.9,36.1,29.97,NNW,344,3.0,6.0,71,0.00,,,0.00,VWS V14.01,2013-03-29 12:40:00,
2013-03-29 08:45:00,45.4,36.6,29.97,NW,311,4.0,6.0,71,0.00,,,0.00,VWS V14.01,2013-03-29 12:45:00,
2013-03-29 08:50:00,45.8,36.2,29.97,NNW,333,3.0,6.0,69,0.00,,,0.00,VWS V14.01,2013-03-29 12:50:00,
2013-03-29 08:55:00,46.1,36.5,29.97,West,280,1.0,6.0,69,0.00,,,0.00,VWS V14.01,2013-03-29 12:55:00,
2013-03-29 09:00:00,46.4,36.8,29.97,NW,319,3.0,8.0,69,0.00,,,0.00,VWS V14.01,2013-03-29 13:00:00,
2013-03-29 09:05:00,46.8,36.8,29.97,NW,324,1.0,5.0,68,0.00,,,0.00,VWS V14.01,2013-03-29 13:05:00,
2013-03-29 09:10:00,47.2,36.8,29.97,NW,323,1.0,6.0,67,0.00,,,0.00,VWS V14.01,2013-03-29 13:10:00,
2013-03-29 09:15:00,48.0,37.2,29.97,NNW,327,2.0,6.0,66,0.00,,,0.00,VWS V14.01,2013-03-29 13:15:00,
2013-03-29 09:20:00,48.5,37.3,29.97,North,360,3.0,7.0,65,0.00,,,0.00,VWS V14.01,2013-03-29 13:20:00,
2013-03-29 09:25:00,48.7,37.1,29.97,NW,321,3.0,7.0,64,0.00,,,0.00,VWS V14.01,2013-03-29 13:25:00,
2013-03-29 09:30:00,48.7,37.1,29.97,NW,316,2.0,8.0,64,0.00,,,0.00,VWS V14.01,2013-03-29 13:30:00,
2013-03-29 09:35:00,48.9,36.9,29.97,WNW,300,6.0,8.0,63,0.00,,,0.00,VWS V14.01,2013-03-29 13:35:00,
2013-03-29 09:40:00,49.2,37.2,29.96,West,277,1.0,8.0,63,0.00,,,0.00,VWS V14.01,2013-03-29 13:40:00,
2013-03-29 09:45:00,49.6,37.1,29.96,WNW,289,5.0,10.0,62,0.00,,,0.00,VWS V14.01,2013-03-29 13:45:00,
2013-03-29 09:50:00,49.7,36.8,29.97,NW,308,1.0,10.0,61,0.00,,,0.00,VWS V14.01,2013-03-29 13:50:00,
2013-03-29 09:55:00,50.3,37.8,29.96,NW,322,3.0,10.0,62,0.00,,,0.00,VWS V14.01,2013-03-29 13:55:00,
2013-03-29 10:00:00,50.5,37.2,29.96,West,271,2.0,10.0,60,0.00,,,0.00,VWS V14.01,2013-03-29 14:00:00,
2013-03-29 10:05:00,50.5,37.2,29.96,NW,319,5.0,8.0,60,0.00,,,0.00,VWS V14.01,2013-03-29 14:05:00,
2013-03-29 10:10:00,50.7,37.8,29.97,NW,305,1.0,8.0,61,0.00,,,0.00,VWS V14.01,2013-03-29 14:10:00,
2013-03-29 10:15:00,51.2,37.8,29.97,NW,304,5.0,8.0,60,0.00,,,0.00,VWS V14.01,2013-03-29 14:15:00,
2013-03-29 10:20:00,51.2,37.4,29.97,NNW,333,2.0,9.0,59,0.00,,,0.00,VWS V14.01,2013-03-29 14:20:00,
2013-03-29 10:25:00,51.6,38.2,29.96,West,269,1.0,9.0,60,0.00,,,0.00,VWS V14.01,2013-03-29 14:25:00,
2013-03-29 10:30:00,52.2,37.9,29.96,NW,313,1.0,9.0,58,0.00,,,0.00,VWS V14.01,2013-03-29 14:30:00,
2013-03-29 10:35:00,52.4,37.6,29.96,WNW,301,5.0,6.0,57,0.00,,,0.00,VWS V14.01,2013-03-29 14:35:00,
2013-03-29 10:40:00,52.7,37.9,29.97,WNW,288,1.0,6.0,57,0.00,,,0.00,VWS V14.01,2013-03-29 14:40:00,
2013-03-29 10:45:00,53.3,37.6,29.96,NNE,21,2.0,6.0,55,0.00,,,0.00,VWS V14.01,2013-03-29 14:45:00,
2013-03-29 10:50:00,53.7,37.9,29.96,NNW,344,5.0,6.0,55,0.00,,,0.00,VWS V14.01,2013-03-29 14:50:00,
2013-03-29 10:55:00,53.7,38.4,29.96,NW,318,1.0,6.0,56,0.00,,,0.00,VWS V14.01,2013-03-29 14:55:00,
2013-03-29 11:00:00,54.1,37.8,29.96,North,11,2.0,6.0,54,0.00,,,0.00,VWS V14.01,2013-03-29 15:00:00,
2013-03-29 11:05:00,53.9,38.1,29.96,WNW,287,2.0,9.0,55,0.00,,,0.00,VWS V14.01,2013-03-29 15:05:00,
2013-03-29 11:10:00,54.2,37.5,29.96,WSW,255,4.0,9.0,53,0.00,,,0.00,VWS V14.01,2013-03-29 15:10:00,
2013-03-29 11:15:00,54.4,38.1,29.96,NW,315,4.0,9.0,54,0.00,,,0.00,VWS V14.01,2013-03-29 15:15:00,
2013-03-29 11:20:00,54.9,38.1,29.96,NNE,16,2.0,9.0,53,0.00,,,0.00,VWS V14.01,2013-03-29 15:20:00,
2013-03-29 11:25:00,55.3,37.5,29.96,West,267,5.0,9.0,51,0.00,,,0.00,VWS V14.01,2013-03-29 15:25:00,
2013-03-29 11:30:00,55.3,38.0,29.96,NNW,330,1.0,9.0,52,0.00,,,0.00,VWS V14.01,2013-03-29 15:30:00,
2013-03-29 11:35:00,55.6,37.8,29.96,NW,317,1.0,8.0,51,0.00,,,0.00,VWS V14.01,2013-03-29 15:35:00,
2013-03-29 11:40:00,56.0,38.2,29.96,NW,313,2.0,8.0,51,0.00,,,0.00,VWS V14.01,2013-03-29 15:40:00,
2013-03-29 11:45:00,56.4,38.0,29.96,WNW,294,3.0,8.0,50,0.00,,,0.00,VWS V14.01,2013-03-29 15:45:00,
2013-03-29 11:50:00,56.7,39.3,29.95,WNW,286,3.0,8.0,52,0.00,,,0.00,VWS V14.01,2013-03-29 15:50:00,
2013-03-29 11:55:00,56.3,36.9,29.95,West,261,6.0,8.0,48,0.00,,,0.00,VWS V14.01,2013-03-29 15:55:00,
2013-03-29 12:00:00,56.3,38.4,29.95,WNW,296,4.0,8.0,51,0.00,,,0.00,VWS V14.01,2013-03-29 16:00:00,
2013-03-29 12:05:00,56.8,37.3,29.95,WNW,292,5.0,6.0,48,0.00,,,0.00,VWS V14.01,2013-03-29 16:05:00,
2013-03-29 12:10:00,56.2,37.3,29.95,NNW,336,2.0,8.0,49,0.00,,,0.00,VWS V14.01,2013-03-29 16:10:00,
2013-03-29 12:15:00,56.4,37.5,29.95,NW,308,2.0,9.0,49,0.00,,,0.00,VWS V14.01,2013-03-29 16:15:00,
2013-03-29 12:20:00,56.8,36.8,29.95,NW,306,4.0,9.0,47,0.00,,,0.00,VWS V14.01,2013-03-29 16:20:00,
2013-03-29 12:25:00,56.9,37.4,29.95,NW,318,1.0,9.0,48,0.00,,,0.00,VWS V14.01,2013-03-29 16:25:00,
2013-03-29 12:30:00,56.9,37.4,29.95,West,273,2.0,9.0,48,0.00,,,0.00,VWS V14.01,2013-03-29 16:30:00,
2013-03-29 12:35:00,57.0,37.0,29.95,West,266,2.0,4.0,47,0.00,,,0.00,VWS V14.01,2013-03-29 16:35:00,
2013-03-29 12:40:00,56.8,37.3,29.94,SSW,197,2.0,4.0,48,0.00,,,0.00,VWS V14.01,2013-03-29 16:40:00,
2013-03-29 12:45:00,55.8,36.4,29.94,WSW,254,1.0,6.0,48,0.00,,,0.00,VWS V14.01,2013-03-29 16:45:00,
2013-03-29 12:50:00,54.7,38.4,29.94,SSE,168,2.0,6.0,54,0.00,,,0.00,VWS V14.01,2013-03-29 16:50:00,
2013-03-29 12:55:00,52.9,38.1,29.94,SW,221,6.0,9.0,57,0.00,,,0.00,VWS V14.01,2013-03-29 16:55:00,
2013-03-29 13:00:00,51.5,38.1,29.95,NW,306,2.0,9.0,60,0.00,,,0.00,VWS V14.01,2013-03-29 17:00:00,
2013-03-29 13:05:00,50.8,37.8,29.94,ESE,113,2.0,7.0,61,0.00,,,0.00,VWS V14.01,2013-03-29 17:05:00,
2013-03-29 13:10:00,50.3,37.8,29.94,South,184,1.0,7.0,62,0.00,,,0.00,VWS V14.01,2013-03-29 17:10:00,
2013-03-29 13:15:00,50.0,37.9,29.94,SSW,207,0.0,7.0,63,0.00,,,0.00,VWS V14.01,2013-03-29 17:15:00,
2013-03-29 13:20:00,49.7,38.0,29.94,South,191,2.0,8.0,64,0.00,,,0.00,VWS V14.01,2013-03-29 17:20:00,
2013-03-29 13:25:00,49.6,37.9,29.94,South,169,3.0,8.0,64,0.00,,,0.00,VWS V14.01,2013-03-29 17:25:00,
2013-03-29 13:30:00,49.4,38.1,29.94,SSW,195,2.0,8.0,65,0.00,,,0.00,VWS V14.01,2013-03-29 17:30:00,
2013-03-29 13:35:00,49.1,37.9,29.93,SSW,202,1.0,6.0,65,0.00,,,0.00,VWS V14.01,2013-03-29 17:35:00,
2013-03-29 13:40:00,48.7,37.9,29.93,SW,226,2.0,7.0,66,0.00,,,0.00,VWS V14.01,2013-03-29 17:40:00,
2013-03-29 13:45:00,48.6,38.5,29.93,SSE,147,1.0,7.0,68,0.00,,,0.00,VWS V14.01,2013-03-29 17:45:00,
2013-03-29 13:50:00,48.3,38.2,29.93,SSW,192,3.0,8.0,68,0.00,,,0.00,VWS V14.01,2013-03-29 17:50:00,
2013-03-29 13:55:00,47.9,38.2,29.93,SSW,213,5.0,8.0,69,0.00,,,0.00,VWS V14.01,2013-03-29 17:55:00,
2013-03-29 14:00:00,47.4,38.5,29.93,SSE,155,2.0,8.0,71,0.00,,,0.00,VWS V14.01,2013-03-29 18:00:00,
2013-03-29 14:05:00,47.0,38.5,29.93,East,86,2.0,6.0,72,0.00,,,0.00,VWS V14.01,2013-03-29 18:05:00,
2013-03-29 14:10:00,46.4,38.2,29.94,ENE,69,5.0,10.0,73,0.00,,,0.00,VWS V14.01,2013-03-29 18:10:00,
2013-03-29 14:15:00,45.6,37.8,29.94,SSW,210,1.0,11.0,74,0.00,,,0.00,VWS V14.01,2013-03-29 18:15:00,
2013-03-29 14:20:00,45.6,37.8,29.93,SSE,159,4.0,11.0,74,0.00,,,0.00,VWS V14.01,2013-03-29 18:20:00,
2013-03-29 14:25:00,45.8,37.7,29.93,SE,139,2.0,11.0,73,0.00,,,0.00,VWS V14.01,2013-03-29 18:25:00,
2013-03-29 14:30:00,45.8,38.0,29.93,SSE,159,3.0,11.0,74,0.00,,,0.00,VWS V14.01,2013-03-29 18:30:00,
2013-03-29 14:35:00,45.8,37.7,29.93,SE,127,3.0,7.0,73,0.00,,,0.00,VWS V14.01,2013-03-29 18:35:00,
2013-03-29 14:40:00,46.1,38.3,29.93,SE,138,3.0,7.0,74,0.00,,,0.00,VWS V14.01,2013-03-29 18:40:00,
2013-03-29 14:45:00,46.0,38.2,29.93,ESE,118,5.0,8.0,74,0.00,,,0.00,VWS V14.01,2013-03-29 18:45:00,
2013-03-29 14:50:00,45.7,38.9,29.93,ESE,119,5.0,8.0,77,0.00,,,0.00,VWS V14.01,2013-03-29 18:50:00,
2013-03-29 14:55:00,45.4,39.0,29.93,SE,126,2.0,8.0,78,0.00,,,0.00,VWS V14.01,2013-03-29 18:55:00,
2013-03-29 15:00:00,45.3,39.2,29.92,SE,124,4.0,8.0,79,0.00,,,0.00,VWS V14.01,2013-03-29 19:00:00,
2013-03-29 15:05:00,45.5,39.7,29.92,SE,130,3.0,5.0,80,0.00,,,0.00,VWS V14.01,2013-03-29 19:05:00,
2013-03-29 15:10:00,45.9,39.4,29.92,ESE,117,5.0,10.0,78,0.00,,,0.00,VWS V14.01,2013-03-29 19:10:00,
2013-03-29 15:15:00,46.2,40.1,29.92,ESE,123,5.0,10.0,79,0.00,,,0.00,VWS V14.01,2013-03-29 19:15:00,
2013-03-29 15:20:00,46.4,40.2,29.92,SE,132,8.0,10.0,79,0.00,,,0.00,VWS V14.01,2013-03-29 19:20:00,
2013-03-29 15:25:00,46.3,40.5,29.92,SE,130,4.0,10.0,80,0.00,,,0.00,VWS V14.01,2013-03-29 19:25:00,
2013-03-29 15:30:00,46.4,39.6,29.92,ESE,116,5.0,10.0,77,0.00,,,0.00,VWS V14.01,2013-03-29 19:30:00,
2013-03-29 15:35:00,46.7,38.9,29.92,SE,135,3.0,8.0,74,0.00,,,0.00,VWS V14.01,2013-03-29 19:35:00,
2013-03-29 15:40:00,46.9,38.4,29.93,SSW,205,1.0,8.0,72,0.00,,,0.00,VWS V14.01,2013-03-29 19:40:00,
2013-03-29 15:45:00,47.0,37.7,29.93,SSE,154,2.0,8.0,70,0.00,,,0.00,VWS V14.01,2013-03-29 19:45:00,
2013-03-29 15:50:00,46.9,37.6,29.92,SSE,155,3.0,8.0,70,0.00,,,0.00,VWS V14.01,2013-03-29 19:50:00,
2013-03-29 15:55:00,46.7,37.8,29.93,SSW,207,0.0,8.0,71,0.00,,,0.00,VWS V14.01,2013-03-29 19:55:00,
2013-03-29 16:00:00,46.5,38.3,29.93,South,182,2.0,8.0,73,0.00,,,0.00,VWS V14.01,2013-03-29 20:00:00,
2013-03-29 16:05:00,46.3,39.5,29.92,SE,128,4.0,4.0,77,0.00,,,0.00,VWS V14.01,2013-03-29 20:05:00,
2013-03-29 16:10:00,45.9,39.8,29.92,SE,144,0.0,4.0,79,0.01,,,0.01,VWS V14.01,2013-03-29 20:10:00,
2013-03-29 16:15:00,46.1,40.3,29.92,SSE,148,3.0,4.0,80,0.01,,,0.01,VWS V14.01,2013-03-29 20:15:00,
2013-03-29 16:20:00,46.7,40.5,29.92,SSE,147,0.0,4.0,79,0.01,,,0.01,VWS V14.01,2013-03-29 20:20:00,
2013-03-29 16:25:00,47.3,40.1,29.92,SW,225,0.0,5.0,76,0.01,,,0.01,VWS V14.01,2013-03-29 20:25:00,
2013-03-29 16:30:00,47.9,40.0,29.92,South,174,3.0,5.0,74,0.01,,,0.01,VWS V14.01,2013-03-29 20:30:00,
2013-03-29 16:35:00,48.3,39.3,29.91,South,175,2.0,6.0,71,0.01,,,0.01,VWS V14.01,2013-03-29 20:35:00,
2013-03-29 16:40:00,48.5,39.2,29.91,SSW,209,0.0,6.0,70,0.01,,,0.01,VWS V14.01,2013-03-29 20:40:00,
2013-03-29 16:45:00,48.4,38.7,29.92,South,189,3.0,6.0,69,0.01,,,0.01,VWS V14.01,2013-03-29 20:45:00,
2013-03-29 16:50:00,48.2,37.8,29.91,SSW,202,2.0,6.0,67,0.01,,,0.01,VWS V14.01,2013-03-29 20:50:00,
2013-03-29 16:55:00,47.9,37.9,29.92,SSW,212,1.0,8.0,68,0.01,,,0.01,VWS V14.01,2013-03-29 20:55:00,
2013-03-29 17:00:00,47.8,38.1,29.92,WSW,238,4.0,8.0,69,0.01,,,0.01,VWS V14.01,2013-03-29 21:00:00,
2013-03-29 17:05:00,47.7,38.4,29.91,SW,234,3.0,6.0,70,0.01,,,0.01,VWS V14.01,2013-03-29 21:05:00,
2013-03-29 17:10:00,47.5,37.5,29.91,WSW,258,3.0,10.0,68,0.01,,,0.01,VWS V14.01,2013-03-29 21:10:00,
2013-03-29 17:15:00,47.4,37.4,29.91,South,171,7.0,10.0,68,0.01,,,0.01,VWS V14.01,2013-03-29 21:15:00,
2013-03-29 17:20:00,47.2,37.6,29.92,SSE,161,2.0,10.0,69,0.01,,,0.01,VWS V14.01,2013-03-29 21:20:00,
2013-03-29 17:25:00,47.1,37.5,29.92,WSW,254,5.0,10.0,69,0.01,,,0.01,VWS V14.01,2013-03-29 21:25:00,
2013-03-29 17:30:00,47.1,37.8,29.92,SW,221,4.0,10.0,70,0.01,,,0.01,VWS V14.01,2013-03-29 21:30:00,
2013-03-29 17:35:00,46.9,37.3,29.92,WSW,250,2.0,10.0,69,0.00,,,0.01,VWS V14.01,2013-03-29 21:35:00,
2013-03-29 17:40:00,46.7,37.8,29.92,West,262,4.0,13.0,71,0.00,,,0.01,VWS V14.01,2013-03-29 21:40:00,
2013-03-29 17:45:00,46.6,38.1,29.93,West,273,0.0,13.0,72,0.00,,,0.01,VWS V14.01,2013-03-29 21:45:00,
2013-03-29 17:50:00,46.5,38.3,29.93,West,273,0.0,13.0,73,0.00,,,0.01,VWS V14.01,2013-03-29 21:50:00,
2013-03-29 17:55:00,46.4,38.2,29.93,West,273,0.0,13.0,73,0.00,,,0.01,VWS V14.01,2013-03-29 21:55:00,
2013-03-29 18:00:00,46.2,38.0,29.92,SSE,154,0.0,13.0,73,0.00,,,0.01,VWS V14.01,2013-03-29 22:00:00,
2013-03-29 18:05:00,46.1,38.3,29.92,SSE,153,1.0,4.0,74,0.00,,,0.01,VWS V14.01,2013-03-29 22:05:00,
2013-03-29 18:10:00,45.8,38.3,29.92,SSE,153,3.0,4.0,75,0.00,,,0.01,VWS V14.01,2013-03-29 22:10:00,
2013-03-29 18:15:00,45.6,38.2,29.92,SE,138,0.0,4.0,75,0.00,,,0.01,VWS V14.01,2013-03-29 22:15:00,
2013-03-29 18:20:00,45.3,38.5,29.93,SE,146,2.0,4.0,77,0.00,,,0.01,VWS V14.01,2013-03-29 22:20:00,
2013-03-29 18:25:00,45.0,38.6,29.93,SSW,193,1.0,4.0,78,0.00,,,0.01,VWS V14.01,2013-03-29 22:25:00,
2013-03-29 18:30:00,44.8,38.7,29.93,SE,143,4.0,4.0,79,0.00,,,0.01,VWS V14.01,2013-03-29 22:30:00,
2013-03-29 18:35:00,44.5,38.4,29.93,SE,134,0.0,3.0,79,0.00,,,0.01,VWS V14.01,2013-03-29 22:35:00,
2013-03-29 18:40:00,44.3,38.5,29.93,SE,134,2.0,3.0,80,0.00,,,0.01,VWS V14.01,2013-03-29 22:40:00,
2013-03-29 18:45:00,44.1,38.3,29.92,SE,134,0.0,3.0,80,0.00,,,0.01,VWS V14.01,2013-03-29 22:45:00,
2013-03-29 18:50:00,44.0,38.2,29.93,SE,134,1.0,3.0,80,0.00,,,0.01,VWS V14.01,2013-03-29 22:50:00,
2013-03-29 18:55:00,43.9,38.1,29.93,SE,135,1.0,3.0,80,0.00,,,0.01,VWS V14.01,2013-03-29 22:55:00,
2013-03-29 19:00:00,43.7,38.3,29.93,SE,131,1.0,3.0,81,0.00,,,0.01,VWS V14.01,2013-03-29 23:00:00,
2013-03-29 19:05:00,43.6,38.5,29.93,SE,134,0.0,2.0,82,0.00,,,0.01,VWS V14.01,2013-03-29 23:05:00,
2013-03-29 19:10:00,43.4,38.3,29.93,SE,136,3.0,4.0,82,0.00,,,0.01,VWS V14.01,2013-03-29 23:10:00,
2013-03-29 19:15:00,43.2,38.4,29.92,SE,140,1.0,4.0,83,0.00,,,0.01,VWS V14.01,2013-03-29 23:15:00,
2013-03-29 19:20:00,43.1,38.6,29.92,SE,130,2.0,4.0,84,0.00,,,0.01,VWS V14.01,2013-03-29 23:20:00,
2013-03-29 19:25:00,43.0,38.5,29.93,SSE,157,1.0,4.0,84,0.00,,,0.01,VWS V14.01,2013-03-29 23:25:00,
2013-03-29 19:30:00,43.0,38.5,29.93,SE,139,1.0,4.0,84,0.00,,,0.01,VWS V14.01,2013-03-29 23:30:00,
2013-03-29 19:35:00,42.9,38.4,29.93,SSW,202,1.0,2.0,84,0.00,,,0.01,VWS V14.01,2013-03-29 23:35:00,
2013-03-29 19:40:00,42.9,38.4,29.93,SSW,202,0.0,2.0,84,0.00,,,0.01,VWS V14.01,2013-03-29 23:40:00,
2013-03-29 19:45:00,42.9,38.4,29.93,SE,142,3.0,4.0,84,0.00,,,0.01,VWS V14.01,2013-03-29 23:45:00,
2013-03-29 19:50:00,42.8,38.3,29.93,ESE,123,0.0,4.0,84,0.00,,,0.01,VWS V14.01,2013-03-29 23:50:00,
2013-03-29 19:55:00,42.7,38.2,29.93,SE,132,2.0,4.0,84,0.00,,,0.01,VWS V14.01,2013-03-29 23:55:00,
2013-03-29 20:00:00,42.7,38.2,29.93,South,171,1.0,4.0,84,0.00,,,0.01,VWS V14.01,2013-03-30 00:00:00,
2013-03-29 20:05:00,42.7,38.5,29.93,SSE,163,0.0,2.0,85,0.00,,,0.01,VWS V14.01,2013-03-30 00:05:00,
2013-03-29 20:10:00,42.7,38.5,29.94,SSE,163,1.0,2.0,85,0.00,,,0.01,VWS V14.01,2013-03-30 00:10:00,
2013-03-29 20:15:00,42.6,38.4,29.94,SW,234,1.0,4.0,85,0.00,,,0.01,VWS V14.01,2013-03-30 00:15:00,
2013-03-29 20:20:00,42.5,38.3,29.94,SSW,198,0.0,4.0,85,0.00,,,0.01,VWS V14.01,2013-03-30 00:20:00,
2013-03-29 20:25:00,42.5,38.3,29.94,SSW,198,1.0,4.0,85,0.00,,,0.01,VWS V14.01,2013-03-30 00:25:00,
2013-03-29 20:30:00,42.5,38.3,29.94,SSW,200,0.0,4.0,85,0.00,,,0.01,VWS V14.01,2013-03-30 00:30:00,
2013-03-29 20:35:00,42.4,38.2,29.94,SSW,200,0.0,1.0,85,0.00,,,0.01,VWS V14.01,2013-03-30 00:35:00,
2013-03-29 20:40:00,42.4,38.2,29.94,SSW,200,0.0,1.0,85,0.00,,,0.01,VWS V14.01,2013-03-30 00:40:00,
2013-03-29 20:45:00,42.4,38.2,29.95,SSW,200,0.0,2.0,85,0.00,,,0.01,VWS V14.01,2013-03-30 00:45:00,
2013-03-29 20:50:00,42.4,38.5,29.95,SSW,200,0.0,2.0,86,0.00,,,0.01,VWS V14.01,2013-03-30 00:50:00,
2013-03-29 20:55:00,42.3,38.4,29.94,SSW,200,0.0,2.0,86,0.00,,,0.01,VWS V14.01,2013-03-30 00:55:00,
2013-03-29 21:00:00,42.3,38.4,29.95,SSW,200,0.0,2.0,86,0.00,,,0.01,VWS V14.01,2013-03-30 01:00:00,
2013-03-29 21:05:00,42.4,38.5,29.95,SSW,200,0.0,3.0,86,0.00,,,0.01,VWS V14.01,2013-03-30 01:05:00,
2013-03-29 21:10:00,42.6,38.4,29.95,SSW,200,0.0,3.0,85,0.00,,,0.01,VWS V14.01,2013-03-30 01:10:00,
2013-03-29 21:15:00,42.7,38.5,29.95,SSW,200,0.0,3.0,85,0.00,,,0.01,VWS V14.01,2013-03-30 01:15:00,
2013-03-29 21:20:00,42.8,38.6,29.95,SSW,200,0.0,3.0,85,0.00,,,0.01,VWS V14.01,2013-03-30 01:20:00,
2013-03-29 21:25:00,42.8,38.9,29.95,SSW,200,0.0,3.0,86,0.00,,,0.01,VWS V14.01,2013-03-30 01:25:00,
2013-03-29 21:30:00,42.8,38.9,29.95,SSW,200,0.0,3.0,86,0.00,,,0.01,VWS V14.01,2013-03-30 01:30:00,
2013-03-29 21:35:00,42.8,38.9,29.95,SSW,200,0.0,1.0,86,0.00,,,0.01,VWS V14.01,2013-03-30 01:35:00,
2013-03-29 21:40:00,42.8,38.9,29.95,SSW,200,0.0,2.0,86,0.00,,,0.01,VWS V14.01,2013-03-30 01:40:00,
2013-03-29 21:45:00,42.8,38.6,29.95,SSW,200,0.0,2.0,85,0.00,,,0.01,VWS V14.01,2013-03-30 01:45:00,
2013-03-29 21:50:00,42.7,38.5,29.95,SSW,200,0.0,2.0,85,0.00,,,0.01,VWS V14.01,2013-03-30 01:50:00,
2013-03-29 21:55:00,42.7,38.5,29.95,SSW,200,0.0,2.0,85,0.00,,,0.01,VWS V14.01,2013-03-30 01:55:00,
2013-03-29 22:00:00,42.6,38.4,29.95,SSW,200,0.0,2.0,85,0.00,,,0.01,VWS V14.01,2013-03-30 02:00:00,
2013-03-29 22:05:00,42.5,38.3,29.95,SSW,200,0.0,0.0,85,0.00,,,0.01,VWS V14.01,2013-03-30 02:05:00,
2013-03-29 22:10:00,42.4,38.2,29.95,SSW,200,0.0,1.0,85,0.00,,,0.01,VWS V14.01,2013-03-30 02:10:00,
2013-03-29 22:15:00,42.2,38.3,29.95,SSW,200,0.0,1.0,86,0.00,,,0.01,VWS V14.01,2013-03-30 02:15:00,
2013-03-29 22:20:00,42.0,38.1,29.95,SSW,200,1.0,2.0,86,0.00,,,0.01,VWS V14.01,2013-03-30 02:20:00,
2013-03-29 22:25:00,41.6,37.7,29.95,SSW,200,1.0,3.0,86,0.00,,,0.01,VWS V14.01,2013-03-30 02:25:00,
2013-03-29 22:30:00,41.2,37.6,29.95,SSW,200,0.0,3.0,87,0.00,,,0.01,VWS V14.01,2013-03-30 02:30:00,
2013-03-29 22:35:00,40.8,37.5,29.95,SSW,200,0.0,2.0,88,0.00,,,0.01,VWS V14.01,2013-03-30 02:35:00,
2013-03-29 22:40:00,40.7,37.4,29.95,SSW,200,0.0,2.0,88,0.00,,,0.01,VWS V14.01,2013-03-30 02:40:00,
2013-03-29 22:45:00,40.6,37.3,29.95,SSW,200,0.0,2.0,88,0.00,,,0.01,VWS V14.01,2013-03-30 02:45:00,
2013-03-29 22:50:00,40.6,37.3,29.96,SSW,200,0.0,2.0,88,0.00,,,0.01,VWS V14.01,2013-03-30 02:50:00,
2013-03-29 22:55:00,40.5,37.2,29.96,SSW,200,1.0,2.0,88,0.00,,,0.01,VWS V14.01,2013-03-30 02:55:00,
2013-03-29 23:00:00,40.5,37.2,29.96,SSW,200,0.0,2.0,88,0.00,,,0.01,VWS V14.01,2013-03-30 03:00:00,
2013-03-29 23:05:00,40.4,37.1,29.96,SSW,200,0.0,0.0,88,0.00,,,0.01,VWS V14.01,2013-03-30 03:05:00,
2013-03-29 23:10:00,40.4,37.1,29.96,SSW,200,0.0,0.0,88,0.00,,,0.01,VWS V14.01,2013-03-30 03:10:00,
2013-03-29 23:15:00,40.6,37.3,29.96,SSW,200,0.0,1.0,88,0.00,,,0.01,VWS V14.01,2013-03-30 03:15:00,
2013-03-29 23:20:00,40.9,37.3,29.96,SSW,200,0.0,1.0,87,0.00,,,0.01,VWS V14.01,2013-03-30 03:20:00,
2013-03-29 23:25:00,41.2,37.3,29.96,SSW,200,0.0,1.0,86,0.00,,,0.01,VWS V14.01,2013-03-30 03:25:00,
2013-03-29 23:30:00,41.3,37.1,29.96,SSW,200,1.0,2.0,85,0.00,,,0.01,VWS V14.01,2013-03-30 03:30:00,
2013-03-29 23:35:00,41.4,36.9,29.95,SSW,200,0.0,2.0,84,0.00,,,0.01,VWS V14.01,2013-03-30 03:35:00,
2013-03-29 23:40:00,41.5,36.7,29.96,SSW,200,0.0,2.0,83,0.00,,,0.01,VWS V14.01,2013-03-30 03:40:00,
2013-03-29 23:45:00,41.6,36.8,29.96,SSW,200,0.0,2.0,83,0.00,,,0.01,VWS V14.01,2013-03-30 03:45:00,
2013-03-29 23:50:00,41.7,36.6,29.96,SSW,200,0.0,2.0,82,0.00,,,0.01,VWS V14.01,2013-03-30 03:50:00,
2013-03-29 23:55:00,41.7,36.3,29.96,SSW,200,0.0,2.0,81,0.00,,,0.01,VWS V14.01,2013-03-30 03:55:00,